Погода в Серове

Погода в Серове : погода сейчас, прогноз погоды и архив. Всё, что Вы хотите узнать о погоде в Серове!

Поиск расширенной информации на нашем сайте:

Другие новости

Новости СМИ2

Главная страница сайта

Новости сайта

03.07.2017

Напоминаем, что на нашем специализированном сайте Метеоцентр.Азия вы можете получить высокодетализированные автоматические прогнозы погоды по пунктам России, СНГ и мира в авиационном формате (включающие направление и скорость ветра, видимость, явления погоды, количество и форму облачности, нижнюю и верхнюю границу облачности).


Погода в Серове - сегодня

Время (UTC), дата Ветер
(°,м/с) 
Видим.   Явления Облачность Т
(°С)
Тd
(°С)
f(%) Тe
(°С)
Pmin
(гПа)
dP
(гПа)
Po
(мм)
O2
(г/м3)
Тmin Tmax R s Состояние
почвы
00 17.08.17 290 (З) 10 км    8/8 600 м 
[Sc]
+11.7 +7.2 74 +11  1025.1  -0.2  757  291           
06 17.08.17 310 (СЗ) 20000 м    5/5 300 м кучево-дожд. 
[Cb calv]
+18.9 +7.4 47 +20  1024.8  0.1  758  284           
09 17.08.17 330 (СЗ) 20000 м    8/8 300 м кучево-дожд. 
[Cb calv]
+19.1 +6.6 44 +20  1025.4  0.6  758  284           
12 17.08.17 360 (С) 3{11}  20000 м    4/4 600 м 
[Cu Sc]
+18.9 +3.9 37 +20  1025.7  0.3  758  285           
15 17.08.17 010 (С) 20000 м    ясно 
+16.1 +4.4 46 +17  1026.8  0.9  759  288    +20.6       
18 17.08.17 280 (З) 10 км    ясно 
+8.9 +6.4 84 +9  1028.2  1.1  760  295           
21 17.08.17 270 (З) 10 км    ясно 
+6.3 +4.8 90 +6  1029.1  0.7  760  299           
00 18.08.17 280 (З) 10 км    ясно 
+4.6 +3.2 91 +4  1029.2  760  301           
06 18.08.17 270 (З) 20000 м    1/0 верхняя 
[Ci fib]
+16.2 +5.5 49 +17  1028.4  -0.3  760  288           
09 18.08.17 240 (ЮЗ) 20000 м    3/3 600 м верхняя 
[Cu hum|Ci fib]
+18.7 +3.5 36 +20  1026.9  -1.3  759  286           
12 18.08.17 260 (З) 20000 м    4/3 600 м верхняя 
[Cu hum|Ci fib]
+20.1 +3.5 33 +20  1025.1  -1.7  758  284           
18 18.08.17 290 (З) 10 км    ясно 
+12.3 +7.7 73 +13  1024.4  0.1  757  291           
21 18.08.17 тихо ()   10 км    8/8 600 м 
[Sc]
+11.6 +7.9 78 +12  1023.6  -0.8  756  291           
00 19.08.17 270 (З) 10 км    9/9 600 м 
[Sc]
+11.9 +8.6 80 +12  1022.6  -1  756  290           
06 19.08.17 280 (З) 20000 м    4/1 600 м верхняя 
[Cu hum|Ci fib]
+20.7 +11.4 55 +24  1021.9  -0.2  755  281           
09 19.08.17 280 (З) 20000 м    9/9 300 м кучево-дожд. 
[Cb calv]
+21.5 +10.7 50 +23  1021.2  -0.6  755  280           
12 19.08.17 280 (З) 4{10}  20000 м    9/9 300 м кучево-дожд. 
[Cb calv]
+20 +11.3 57 +23  1021.7  0.5  755  281           
18 19.08.17 270 (З) 10 км    8/8 600 м 
[Sc]
+16.3 +11.7 74 +20  1021.5  0.1  755  285           
21 19.08.17 250 (З) 10 км    3/3 600 м 
[Sc]
+12.7 +10.5 86 +15  1021.4  -0.3  755  289           
00 20.08.17 290 (З) 10 км    ясно 
+11.6 +9.8 89 +13  1021  -0.5  754  290           
06 20.08.17 250 (З) 20000 м    9/9 300 м кучево-дожд. 
[Cb calv]
+17.8 +13.1 74 +24  1018.7  -0.8  753  282           
09 20.08.17 220 (ЮЗ) 20000 м    10/10 300 м кучево-дожд. 
[Cb calv]
+18.7 +14.1 75 +26  1018.1  -0.5  753  281           
12 20.08.17 260 (З) 20000 м    10/10 300 м кучево-дожд. 
[Cb calv]
+19.8 +14.6 72 +29  1018.2  0.1  753  280           
18 20.08.17 290 (З) 10 км  {ливн. осадки}  3/3 600 м 
[Sc]
+14.6 +13.4 93 +22  1019.6  0.8  754  286           
21 20.08.17 300 (СЗ) 10 км    ясно 
+14.4 +13.2 92 +21  1019.6  754  286           
Время (UTC), дата Ветер
(°,м/с) 
Видим.   Явления Облачность Т
(°С)
Тd
(°С)
f(%) Тe
(°С)
Pmin
(гПа)
dP
(гПа)
Po
(мм)
O2
(г/м3)
Тmin Tmax R s Состояние
почвы

Для получения пояснительной информации подведите курсор к названию столбца.

ПОГОДА в Серове - архив

Всё, что Вы хотите узнать о погоде в Серове - удобно и подробно!

Выберите нужную дату (начиная с 1 января 2015* года) и нажмите кнопку "Найти".
Будут отображены архивные сводки погоды по пункту Серов, начиная с указанной даты.


Отображать данные в формате CSV (для использования в таблицах Excel)


Внимание! Наш архив погоды предназначен исключительно для личного некоммерческого использования в познавательных целях. Если Вам необходимы официальные справки о состоянии погоды (для производственных, юридических, коммерческих и т.п. целей), обращайтесь в органы Росгидромета.

*Примечание: данная дата относится к архиву по метеостанциям СССР (Россия, СНГ, Балтия).
Архив по метеостанциям Зарубежной Европы и Азии (кроме Китая) хранится 10 дней, по другим регионам земного шара (Китай, Африка, Америка, Австралия, Океания) - 1 день.

Серов - район местоположения метеостанции


Название, широта, долгота, высота метеостанции:
Серов 59.6°ш. 60.5°д. 130 м над ур. моря [Российская Федерация]

Дополнительная информация

В oтличие oт бoльшинства пoгoдных сайтoв мы публикуем пoдрoбную метеoинфoрмацию в детальнoм прoфессиoнальнoм фoрмате.

Характеристики температуры и влажнoсти вoздуха измеряются на высoте 2 м в тени вдали oт зданий и деревьев.
Скoрoсть ветра измеряется на высoте 10 м (на урoвне рoста челoвека скoрoсть ветра ниже в 1.5-2 раза). Если метеoстанция нахoдится в гoрoде или в лесу, тo скoрoсть ветра занижена на 2-4 м/с пo сравнению с oткрытым местoм. Скoрoсть ветра над акватoриями крупных рек и oзёр, а также на вершинах хoлмoв на 2-5 м/с выше, чем в oбычных услoвиях.
Атмoсфернoе давление в разных тoчках местнoсти мoжет значительнo oтличаться oт давления на метеoстанции, в зависимoсти oт услoвий рельефа (при пoдъёме на 10 м давление пoнижается примернo на 1 мм рт.ст.).